| time (UTC) | temp F | wind direction | speed MPH | gust MPH | rain 1hr in | rain 24hr in | rain mn in | humidity % | barometer mb |
| 20260507114850 | 59 | 113 | 6.0 | 23.0 | 0.00 | 0.00 | 0.00 | 38 | 936.3 |
| 20260507114340 | 60 | 135 | 10.0 | 23.0 | 0.00 | 0.00 | 0.00 | 36 | 936.2 |
| 20260507113830 | 60 | 113 | 14.0 | 20.0 | 0.00 | 0.00 | 0.00 | 35 | 936.4 |
| 20260507113538 | 60 | 113 | 8.0 | 16.0 | 0.00 | 0.00 | 0.00 | 36 | 936.6 |
| 20260507112810 | 61 | 180 | 8.0 | 18.0 | 0.00 | 0.00 | 0.00 | 34 | 937.0 |
| 20260507112300 | 61 | 180 | 10.0 | 18.0 | 0.00 | 0.00 | 0.00 | 35 | 936.4 |
| 20260507112017 | 61 | 158 | 7.0 | 21.0 | 0.00 | 0.00 | 0.00 | 39 | 936.4 |
| 20260507111459 | 61 | 203 | 10.0 | 21.0 | 0.00 | 0.00 | 0.00 | 37 | 936.8 |
| 20260507110729 | 60 | 203 | 9.0 | 18.0 | 0.00 | 0.00 | 0.00 | 39 | 936.0 |
| 20260507110219 | 60 | 158 | 13.0 | 24.0 | 0.00 | 0.00 | 0.00 | 40 | 934.8 |
| 20260507105709 | 60 | 158 | 9.0 | 24.0 | 0.00 | 0.00 | 0.00 | 41 | 934.6 |
| 20260507105159 | 59 | 203 | 14.0 | 23.0 | 0.00 | 0.00 | 0.00 | 41 | 934.6 |
| 20260507104649 | 59 | 158 | 15.0 | 23.0 | 0.00 | 0.00 | 0.00 | 42 | 934.5 |
| 20260507104139 | 59 | 180 | 11.0 | 20.0 | 0.00 | 0.00 | 0.00 | 46 | 934.5 |
| 20260507104111 | 59 | 180 | 12.0 | 16.0 | 0.00 | 0.00 | 0.00 | 47 | 934.2 |
| 20260507103118 | 58 | 158 | 7.0 | 13.0 | 0.00 | 0.00 | 0.00 | 51 | 934.5 |
| 20260507102608 | 58 | 158 | 4.0 | 16.0 | 0.00 | 0.00 | 0.00 | 56 | 934.6 |
| 20260507102550 | 58 | 180 | 8.0 | 16.0 | 0.00 | 0.00 | 0.00 | 54 | 934.6 |
| 20260507101555 | 57 | 158 | 9.0 | 15.0 | 0.00 | 0.00 | 0.00 | 57 | 934.9 |
| 20260507101038 | 57 | 158 | 11.0 | 15.0 | 0.00 | 0.00 | 0.00 | 55 | 934.9 |
| 20260507100528 | 57 | 158 | 8.0 | 15.0 | 0.00 | 0.00 | 0.00 | 56 | 934.5 |
| 20260507100018 | 56 | 135 | 7.0 | 11.0 | 0.00 | 0.00 | 0.00 | 61 | 933.7 |
| 20260507095508 | 56 | 135 | 4.0 | 15.0 | 0.00 | 0.00 | 0.00 | 61 | 933.7 |
| 20260507094958 | 56 | 135 | 4.0 | 15.0 | 0.00 | 0.00 | 0.00 | 61 | 933.8 |
| 20260507094445 | 57 | 90 | 7.0 | 11.0 | 0.00 | 0.00 | 0.00 | 57 | 933.8 |
| 20260507093937 | 58 | 158 | 7.0 | 16.0 | 0.00 | 0.00 | 0.00 | 56 | 934.6 |
| 20260507093427 | 58 | 158 | 10.0 | 16.0 | 0.00 | 0.00 | 0.00 | 52 | 934.0 |
| 20260507092917 | 60 | 158 | 11.0 | 17.0 | 0.00 | 0.00 | 0.00 | 47 | 934.0 |
| 20260507092407 | 60 | 135 | 13.0 | 17.0 | 0.00 | 0.00 | 0.00 | 44 | 934.4 |
| 20260507092123 | 61 | 203 | 8.0 | 17.0 | 0.00 | 0.00 | 0.00 | 43 | 935.1 |
| 20260507091613 | 61 | 180 | 10.0 | 21.0 | 0.00 | 0.00 | 0.00 | 42 | 935.2 |
| 20260507090837 | 61 | 158 | 15.0 | 21.0 | 0.00 | 0.00 | 0.00 | 44 | 934.5 |
| 20260507090328 | 61 | 180 | 11.0 | 20.0 | 0.00 | 0.00 | 0.00 | 44 | 934.3 |
| 20260507085816 | 61 | 180 | 7.0 | 17.0 | 0.00 | 0.00 | 0.00 | 44 | 934.1 |
| 20260507085306 | 61 | 203 | 5.0 | 16.0 | 0.00 | 0.00 | 0.00 | 47 | 933.8 |
| 20260507084756 | 61 | 158 | 10.0 | 16.0 | 0.00 | 0.00 | 0.00 | 47 | 933.4 |
| 20260507084246 | 61 | 180 | 9.0 | 21.0 | 0.00 | 0.00 | 0.00 | 46 | 933.6 |
| 20260507083735 | 61 | 135 | 9.0 | 21.0 | 0.00 | 0.00 | 0.00 | 46 | 933.8 |
| 20260507083226 | 62 | 158 | 11.0 | 21.0 | 0.00 | 0.00 | 0.00 | 46 | 934.0 |
| 20260507082716 | 62 | 180 | 15.0 | 20.0 | 0.00 | 0.00 | 0.00 | 45 | 933.8 |
| 20260507082206 | 62 | 180 | 10.0 | 18.0 | 0.00 | 0.00 | 0.00 | 46 | 934.3 |
| 20260507081656 | 62 | 180 | 11.0 | 18.0 | 0.00 | 0.00 | 0.00 | 45 | 934.6 |
| 20260507081145 | 62 | 203 | 9.0 | 20.0 | 0.00 | 0.00 | 0.00 | 47 | 934.5 |
| 20260507080636 | 62 | 158 | 11.0 | 23.0 | 0.00 | 0.00 | 0.00 | 45 | 934.6 |
| 20260507080125 | 63 | 180 | 12.0 | 23.0 | 0.00 | 0.00 | 0.00 | 46 | 934.4 |
| 20260507075615 | 63 | 158 | 11.0 | 25.0 | 0.00 | 0.00 | 0.00 | 45 | 934.7 |
| 20260507075105 | 63 | 158 | 11.0 | 25.0 | 0.00 | 0.00 | 0.00 | 44 | 934.6 |
| 20260507074554 | 63 | 158 | 11.0 | 24.0 | 0.00 | 0.00 | 0.00 | 44 | 934.3 |
| 20260507074044 | 64 | 158 | 13.0 | 23.0 | 0.00 | 0.00 | 0.00 | 44 | 934.4 |
| 20260507073753 | 64 | 158 | 15.0 | 24.0 | 0.00 | 0.00 | 0.00 | 42 | 934.4 |
| 20260507073024 | 64 | 203 | 16.0 | 27.0 | 0.00 | 0.00 | 0.00 | 42 | 934.2 |
| 20260507072514 | 64 | 158 | 16.0 | 27.0 | 0.00 | 0.00 | 0.00 | 42 | 934.2 |
| 20260507072004 | 64 | 158 | 14.0 | 24.0 | 0.00 | 0.00 | 0.00 | 41 | 934.2 |
| 20260507071716 | 64 | 180 | 17.0 | 25.0 | 0.00 | 0.00 | 0.00 | 41 | 933.8 |
| 20260507070945 | 64 | 135 | 11.0 | 31.0 | 0.00 | 0.00 | 0.00 | 41 | 933.9 |
| 20260507070433 | 64 | 158 | 15.0 | 31.0 | 0.00 | 0.00 | 0.00 | 40 | 933.9 |
| 20260507065924 | 65 | 180 | 14.0 | 30.0 | 0.00 | 0.00 | 0.00 | 41 | 934.1 |
| 20260507065635 | 65 | 203 | 17.0 | 30.0 | 0.00 | 0.00 | 0.00 | 41 | 934.1 |
| 20260507065128 | 65 | 135 | 14.0 | 29.0 | 0.00 | 0.00 | 0.00 | 39 | 934.1 |
| 20260507064354 | 65 | 203 | 20.0 | 30.0 | 0.00 | 0.00 | 0.00 | 39 | 933.6 |
| 20260507063843 | 65 | 203 | 15.0 | 30.0 | 0.00 | 0.00 | 0.00 | 41 | 934.0 |
| 20260507063334 | 65 | 203 | 14.0 | 22.0 | 0.00 | 0.00 | 0.00 | 40 | 934.2 |
| 20260507062823 | 65 | 158 | 11.0 | 24.0 | 0.00 | 0.00 | 0.00 | 42 | 933.8 |
| 20260507062314 | 65 | 203 | 15.0 | 24.0 | 0.00 | 0.00 | 0.00 | 40 | 933.8 |
| 20260507061802 | 65 | 158 | 12.0 | 23.0 | 0.00 | 0.00 | 0.00 | 42 | 933.2 |
| 20260507061253 | 66 | 180 | 11.0 | 27.0 | 0.00 | 0.00 | 0.00 | 41 | 933.3 |
| 20260507060742 | 66 | 180 | 14.0 | 27.0 | 0.00 | 0.00 | 0.00 | 40 | 933.4 |
| 20260507060233 | 66 | 180 | 11.0 | 25.0 | 0.00 | 0.00 | 0.00 | 42 | 933.4 |
| 20260507055723 | 66 | 180 | 15.0 | 25.0 | 0.00 | 0.00 | 0.00 | 42 | 933.5 |
| 20260507055212 | 66 | 180 | 16.0 | 22.0 | 0.00 | 0.00 | 0.00 | 45 | 933.4 |
| 20260507054923 | 66 | 180 | 13.0 | 18.0 | 0.00 | 0.00 | 0.00 | 45 | 933.5 |
| 20260507054152 | 66 | 158 | 12.0 | 20.0 | 0.00 | 0.00 | 0.00 | 47 | 933.6 |
| 20260507053642 | 66 | 158 | 11.0 | 20.0 | 0.00 | 0.00 | 0.00 | 46 | 933.4 |
| 20260507053132 | 67 | 158 | 12.0 | 18.0 | 0.00 | 0.00 | 0.00 | 47 | 933.5 |
| 20260507052621 | 67 | 158 | 13.0 | 18.0 | 0.00 | 0.00 | 0.00 | 47 | 933.4 |
| 20260507052111 | 67 | 180 | 13.0 | 18.0 | 0.00 | 0.00 | 0.00 | 47 | 933.6 |
| 20260507051830 | 67 | 158 | 10.0 | 17.0 | 0.00 | 0.00 | 0.00 | 49 | 933.3 |
| 20260507051313 | 67 | 180 | 11.0 | 24.0 | 0.00 | 0.00 | 0.00 | 49 | 933.5 |
| 20260507050541 | 68 | 158 | 15.0 | 24.0 | 0.00 | 0.00 | 0.00 | 49 | 933.2 |
| 20260507050031 | 68 | 158 | 11.0 | 23.0 | 0.00 | 0.00 | 0.00 | 50 | 933.4 |
| 20260507045522 | 68 | 158 | 15.0 | 23.0 | 0.00 | 0.00 | 0.00 | 49 | 933.3 |
| 20260507045229 | 68 | 135 | 7.0 | 22.0 | 0.00 | 0.00 | 0.00 | 50 | 933.0 |
| 20260507044500 | 68 | 180 | 9.0 | 23.0 | 0.00 | 0.00 | 0.00 | 53 | 933.1 |
| 20260507043951 | 69 | 180 | 11.0 | 24.0 | 0.00 | 0.00 | 0.00 | 54 | 933.0 |
| 20260507043705 | 69 | 158 | 12.0 | 24.0 | 0.00 | 0.00 | 0.00 | 54 | 933.0 |
| 20260507042930 | 69 | 158 | 12.0 | 20.0 | 0.00 | 0.00 | 0.00 | 58 | 932.9 |
| 20260507042858 | 69 | 203 | 9.0 | 15.0 | 0.00 | 0.00 | 0.00 | 65 | 933.0 |
| 20260507042135 | 69 | 158 | 9.0 | 15.0 | 0.00 | 0.00 | 0.00 | 71 | 933.1 |
| 20260507041359 | 69 | 158 | 10.0 | 17.0 | 0.00 | 0.00 | 0.00 | 72 | 933.3 |
| 20260507041109 | 69 | 135 | 8.0 | 17.0 | 0.00 | 0.00 | 0.00 | 72 | 932.8 |
| 20260507040340 | 69 | 180 | 11.0 | 13.0 | 0.00 | 0.00 | 0.00 | 72 | 932.8 |
| 20260507035829 | 70 | 158 | 6.0 | 11.0 | 0.00 | 0.00 | 0.00 | 72 | 932.8 |
| 20260507035320 | 69 | 180 | 4.0 | 11.0 | 0.00 | 0.00 | 0.00 | 73 | 932.7 |
| 20260507034810 | 68 | 248 | 4.0 | 8.0 | 0.00 | 0.00 | 0.00 | 78 | 932.7 |
| 20260507034300 | 67 | 225 | 3.0 | 7.0 | 0.00 | 0.00 | 0.00 | 81 | 932.9 |
| 20260507033750 | 66 | 225 | 2.0 | 8.0 | 0.00 | 0.00 | 0.00 | 83 | 932.6 |
| 20260507033239 | 66 | 225 | 4.0 | 9.0 | 0.00 | 0.00 | 0.00 | 84 | 932.9 |
| 20260507032729 | 65 | 225 | 5.0 | 9.0 | 0.00 | 0.00 | 0.00 | 85 | 932.8 |
| 20260507032219 | 66 | 248 | 6.0 | 8.0 | 0.00 | 0.00 | 0.00 | 84 | 932.7 |
| 20260507031913 | 67 | 203 | 4.0 | 8.0 | 0.00 | 0.00 | 0.00 | 82 | 932.4 |
| 20260507031905 | 66 | 225 | 3.0 | 8.0 | 0.00 | 0.00 | 0.00 | 84 | 932.6 |
| 20260507030649 | 67 | 203 | 0.0 | 11.0 | 0.00 | 0.00 | 0.00 | 81 | 932.2 |
| 20260507030403 | 68 | 225 | 9.0 | 11.0 | 0.00 | 0.00 | 0.00 | 80 | 932.1 |
| 20260507025628 | 70 | 338 | 4.0 | 11.0 | 0.00 | 0.00 | 0.00 | 77 | 932.3 |
| 20260507025339 | 66 | 225 | 8.0 | 9.0 | 0.00 | 0.00 | 0.00 | 84 | 932.5 |
| 20260507024608 | 67 | 203 | 2.0 | 4.0 | 0.00 | 0.00 | 0.00 | 80 | 932.5 |
| 20260507024058 | 67 | 248 | 2.0 | 4.0 | 0.00 | 0.00 | 0.00 | 81 | 932.5 |
| 20260507023808 | 66 | 203 | 0.0 | 4.0 | 0.00 | 0.00 | 0.00 | 85 | 932.4 |
| 20260507023038 | 66 | 203 | 2.0 | 4.0 | 0.00 | 0.00 | 0.00 | 84 | 932.7 |
| 20260507022528 | 66 | 203 | 2.0 | 8.0 | 0.00 | 0.00 | 0.00 | 85 | 932.5 |
| 20260507022018 | 66 | 248 | 4.0 | 8.0 | 0.00 | 0.00 | 0.00 | 84 | 932.2 |
| 20260507021508 | 65 | 248 | 7.0 | 8.0 | 0.00 | 0.00 | 0.00 | 84 | 932.2 |
| 20260507020958 | 66 | 203 | 4.0 | 6.0 | 0.00 | 0.00 | 0.00 | 83 | 932.4 |
| 20260507020448 | 66 | 180 | 4.0 | 6.0 | 0.00 | 0.00 | 0.00 | 84 | 932.4 |
| 20260507015938 | 67 | 203 | 4.0 | 6.0 | 0.00 | 0.00 | 0.00 | 82 | 932.6 |
| 20260507015427 | 67 | 225 | 3.0 | 8.0 | 0.00 | 0.00 | 0.00 | 81 | 932.4 |
| 20260507014917 | 68 | 225 | 5.0 | 8.0 | 0.00 | 0.00 | 0.00 | 80 | 932.3 |
| 20260507014420 | 70 | 0 | 4.0 | 7.0 | 0.00 | 0.00 | 0.00 | 75 | 932.5 |
| 20260507013856 | 70 | 0 | 3.0 | 6.0 | 0.00 | 0.00 | 0.00 | 74 | 932.5 |
| 20260507013347 | 68 | 225 | 3.0 | 6.0 | 0.00 | 0.00 | 0.00 | 81 | 932.6 |
| 20260507012836 | 69 | 90 | 0.0 | 4.0 | 0.00 | 0.00 | 0.00 | 77 | 932.4 |
| 20260507012326 | 70 | 90 | 2.0 | 4.0 | 0.00 | 0.00 | 0.00 | 75 | 932.2 |
| 20260507011816 | 70 | 23 | 2.0 | 4.0 | 0.00 | 0.00 | 0.00 | 75 | 932.2 |
| 20260507011306 | 70 | 135 | 0.0 | 4.0 | 0.00 | 0.00 | 0.00 | 74 | 931.9 |
| 20260507010756 | 70 | 135 | 2.0 | 4.0 | 0.00 | 0.00 | 0.00 | 74 | 931.9 |
| 20260507010246 | 70 | 158 | 2.0 | 4.0 | 0.00 | 0.00 | 0.00 | 75 | 931.9 |
| 20260507005736 | 70 | 158 | 0.0 | 6.0 | 0.00 | 0.00 | 0.00 | 75 | 931.7 |
| 20260507005444 | 72 | 315 | 2.0 | 7.0 | 0.00 | 0.00 | 0.00 | 71 | 932.0 |
| 20260507004715 | 72 | 338 | 4.0 | 9.0 | 0.00 | 0.00 | 0.00 | 69 | 931.9 |
| 20260507004205 | 72 | 338 | 6.0 | 9.0 | 0.00 | 0.00 | 0.00 | 69 | 931.9 |
| 20260507003655 | 71 | 315 | 1.0 | 9.0 | 0.00 | 0.00 | 0.00 | 71 | 931.8 |
| 20260507003148 | 70 | 338 | 4.0 | 15.0 | 0.00 | 0.00 | 0.00 | 75 | 931.5 |
| 20260507002635 | 72 | 338 | 8.0 | 18.0 | 0.00 | 0.00 | 0.00 | 71 | 931.7 |
| 20260507002125 | 71 | 0 | 12.0 | 18.0 | 0.00 | 0.00 | 0.00 | 74 | 931.8 |
| 20260507001835 | 71 | 0 | 12.0 | 17.0 | 0.00 | 0.00 | 0.00 | 74 | 931.1 |
| 20260507001328 | 71 | 0 | 14.0 | 18.0 | 0.00 | 0.00 | 0.00 | 73 | 931.1 |
| 20260507000554 | 71 | 0 | 14.0 | 21.0 | 0.00 | 0.00 | 0.00 | 75 | 931.3 |
| 20260507000044 | 73 | 0 | 10.0 | 22.0 | 0.00 | 0.00 | 0.00 | 72 | 931.3 |
| 20260506235535 | 72 | 0 | 17.0 | 22.0 | 0.00 | 0.00 | 0.00 | 74 | 931.1 |
| 20260506235024 | 72 | 0 | 16.0 | 21.0 | 0.00 | 0.00 | 0.00 | 72 | 930.8 |
| 20260506234514 | 73 | 0 | 15.0 | 20.0 | 0.00 | 0.00 | 0.00 | 71 | 931.0 |
| 20260506234446 | 72 | 0 | 11.0 | 17.0 | 0.00 | 0.00 | 0.00 | 74 | 931.0 |
| 20260506233455 | 73 | 0 | 6.0 | 9.0 | 0.00 | 0.00 | 0.00 | 72 | 931.1 |
| 20260506232944 | 72 | 0 | 4.0 | 6.0 | 0.00 | 0.00 | 0.00 | 72 | 931.0 |
| 20260506232434 | 73 | 315 | 2.0 | 8.0 | 0.00 | 0.00 | 0.00 | 72 | 931.1 |
| 20260506231924 | 73 | 293 | 3.0 | 16.0 | 0.00 | 0.00 | 0.00 | 73 | 931.0 |
| 20260506231414 | 72 | 338 | 8.0 | 17.0 | 0.00 | 0.00 | 0.00 | 75 | 930.8 |
| 20260506230904 | 72 | 0 | 13.0 | 20.0 | 0.00 | 0.00 | 0.00 | 76 | 930.4 |
| 20260506230354 | 72 | 0 | 14.0 | 20.0 | 0.00 | 0.00 | 0.00 | 74 | 930.4 |
| 20260506225843 | 72 | 0 | 14.0 | 18.0 | 0.00 | 0.00 | 0.00 | 75 | 930.1 |
| 20260506225333 | 72 | 0 | 14.0 | 21.0 | 0.00 | 0.00 | 0.00 | 75 | 930.0 |
| 20260506224823 | 72 | 0 | 12.0 | 25.0 | 0.00 | 0.00 | 0.00 | 74 | 929.8 |
| 20260506224313 | 73 | 0 | 15.0 | 25.0 | 0.00 | 0.00 | 0.00 | 74 | 929.4 |
| 20260506223803 | 73 | 0 | 18.0 | 25.0 | 0.00 | 0.00 | 0.00 | 73 | 929.4 |
| 20260506223253 | 72 | 0 | 13.0 | 17.0 | 0.00 | 0.00 | 0.00 | 74 | 929.4 |
| 20260506222743 | 72 | 0 | 14.0 | 17.0 | 0.00 | 0.00 | 0.00 | 75 | 929.4 |
| 20260506222232 | 71 | 23 | 11.0 | 17.0 | 0.00 | 0.00 | 0.00 | 75 | 929.1 |
| 20260506221722 | 73 | 0 | 12.0 | 17.0 | 0.00 | 0.00 | 0.00 | 71 | 928.9 |
| 20260506221212 | 73 | 0 | 11.0 | 14.0 | 0.00 | 0.00 | 0.00 | 73 | 928.8 |
| 20260506220703 | 72 | 0 | 11.0 | 14.0 | 0.00 | 0.00 | 0.00 | 75 | 928.7 |
| 20260506220151 | 72 | 0 | 9.0 | 17.0 | 0.00 | 0.00 | 0.00 | 74 | 928.7 |
| 20260506215641 | 73 | 0 | 9.0 | 17.0 | 0.00 | 0.00 | 0.00 | 72 | 928.9 |
| 20260506215131 | 74 | 0 | 13.0 | 17.0 | 0.00 | 0.00 | 0.00 | 70 | 928.9 |
| 20260506214621 | 74 | 0 | 13.0 | 16.0 | 0.00 | 0.00 | 0.00 | 70 | 928.6 |
| 20260506214111 | 73 | 23 | 12.0 | 14.0 | 0.00 | 0.00 | 0.00 | 70 | 928.6 |
| 20260506213601 | 73 | 23 | 9.0 | 13.0 | 0.00 | 0.00 | 0.00 | 73 | 928.7 |
| 20260506213052 | 73 | 23 | 9.0 | 15.0 | 0.00 | 0.00 | 0.00 | 73 | 928.3 |
| 20260506212542 | 75 | 0 | 11.0 | 15.0 | 0.00 | 0.00 | 0.00 | 67 | 928.3 |
| 20260506212248 | 74 | 0 | 12.0 | 17.0 | 0.00 | 0.00 | 0.00 | 69 | 928.2 |
| 20260506211521 | 75 | 0 | 12.0 | 17.0 | 0.00 | 0.00 | 0.00 | 67 | 928.3 |
| 20260506211011 | 75 | 0 | 11.0 | 20.0 | 0.00 | 0.00 | 0.00 | 67 | 928.4 |
| 20260506210501 | 76 | 338 | 14.0 | 23.0 | 0.00 | 0.00 | 0.00 | 65 | 928.2 |
| 20260506205950 | 77 | 0 | 18.0 | 23.0 | 0.00 | 0.00 | 0.00 | 62 | 928.3 |
| 20260506205440 | 77 | 0 | 17.0 | 21.0 | 0.00 | 0.00 | 0.00 | 63 | 928.3 |
| 20260506204930 | 77 | 0 | 15.0 | 21.0 | 0.00 | 0.00 | 0.00 | 62 | 928.3 |
| 20260506204420 | 77 | 338 | 17.0 | 22.0 | 0.00 | 0.00 | 0.00 | 63 | 928.4 |
| 20260506203910 | 77 | 0 | 15.0 | 23.0 | 0.00 | 0.00 | 0.00 | 63 | 928.6 |
| 20260506203400 | 78 | 338 | 19.0 | 23.0 | 0.00 | 0.00 | 0.00 | 62 | 928.6 |
| 20260506202850 | 77 | 0 | 16.0 | 24.0 | 0.00 | 0.00 | 0.00 | 63 | 928.4 |
| 20260506202340 | 78 | 0 | 20.0 | 27.0 | 0.00 | 0.00 | 0.00 | 61 | 928.9 |
| 20260506201829 | 77 | 338 | 17.0 | 27.0 | 0.00 | 0.00 | 0.00 | 62 | 928.5 |
| 20260506201549 | 77 | 0 | 17.0 | 25.0 | 0.00 | 0.00 | 0.00 | 62 | 928.8 |
| 20260506201027 | 77 | 0 | 19.0 | 24.0 | 0.00 | 0.00 | 0.00 | 62 | 928.9 |
| 20260506200259 | 77 | 0 | 18.0 | 24.0 | 0.00 | 0.00 | 0.00 | 62 | 928.9 |
| 20260506195750 | 77 | 0 | 21.0 | 25.0 | 0.00 | 0.00 | 0.00 | 62 | 928.9 |
| 20260506195239 | 78 | 0 | 20.0 | 25.0 | 0.00 | 0.00 | 0.00 | 60 | 929.1 |
| 20260506194729 | 77 | 0 | 15.0 | 21.0 | 0.00 | 0.00 | 0.00 | 63 | 929.1 |
| 20260506194219 | 78 | 0 | 15.0 | 22.0 | 0.00 | 0.00 | 0.00 | 61 | 929.0 |
| 20260506193709 | 76 | 0 | 17.0 | 22.0 | 0.00 | 0.00 | 0.00 | 64 | 929.0 |
| 20260506193159 | 77 | 0 | 16.0 | 22.0 | 0.00 | 0.00 | 0.00 | 64 | 929.2 |
| 20260506192648 | 77 | 0 | 15.0 | 24.0 | 0.00 | 0.00 | 0.00 | 63 | 929.2 |
| 20260506192359 | 76 | 0 | 15.0 | 27.0 | 0.00 | 0.00 | 0.00 | 65 | 929.1 |
| 20260506191628 | 77 | 0 | 18.0 | 27.0 | 0.00 | 0.00 | 0.00 | 64 | 929.4 |
| 20260506191118 | 77 | 0 | 21.0 | 27.0 | 0.00 | 0.00 | 0.00 | 63 | 929.2 |
| 20260506190608 | 77 | 0 | 19.0 | 27.0 | 0.00 | 0.00 | 0.00 | 64 | 929.1 |
| 20260506190059 | 76 | 0 | 21.0 | 25.0 | 0.00 | 0.00 | 0.00 | 65 | 929.3 |
| 20260506185548 | 77 | 0 | 20.0 | 25.0 | 0.00 | 0.00 | 0.00 | 63 | 929.3 |
| 20260506185038 | 76 | 0 | 18.0 | 25.0 | 0.00 | 0.00 | 0.00 | 65 | 929.3 |
| 20260506184528 | 76 | 0 | 19.0 | 25.0 | 0.00 | 0.00 | 0.00 | 65 | 929.3 |
| 20260506184017 | 77 | 0 | 22.0 | 29.0 | 0.00 | 0.00 | 0.00 | 64 | 929.5 |
| 20260506183507 | 77 | 0 | 21.0 | 29.0 | 0.00 | 0.00 | 0.00 | 64 | 929.7 |
| 20260506182957 | 77 | 0 | 17.0 | 24.0 | 0.00 | 0.00 | 0.00 | 63 | 929.6 |
| 20260506182710 | 78 | 0 | 21.0 | 27.0 | 0.00 | 0.00 | 0.00 | 62 | 929.7 |
| 20260506181937 | 78 | 0 | 21.0 | 27.0 | 0.00 | 0.00 | 0.00 | 62 | 929.7 |
| 20260506181427 | 78 | 0 | 23.0 | 30.0 | 0.00 | 0.00 | 0.00 | 61 | 929.6 |
| 20260506180916 | 77 | 0 | 21.0 | 30.0 | 0.00 | 0.00 | 0.00 | 62 | 929.5 |
| 20260506180407 | 77 | 338 | 20.0 | 27.0 | 0.00 | 0.00 | 0.00 | 64 | 929.7 |
| 20260506180338 | 78 | 0 | 21.0 | 27.0 | 0.00 | 0.00 | 0.00 | 62 | 929.5 |
| 20260506175346 | 78 | 338 | 23.0 | 27.0 | 0.00 | 0.00 | 0.00 | 60 | 929.9 |
| 20260506174837 | 77 | 0 | 20.0 | 27.0 | 0.00 | 0.00 | 0.00 | 64 | 929.7 |
| 20260506174327 | 76 | 0 | 17.0 | 24.0 | 0.00 | 0.00 | 0.00 | 65 | 930.0 |
| 20260506173816 | 76 | 0 | 15.0 | 25.0 | 0.00 | 0.00 | 0.00 | 66 | 929.8 |
| 20260506173306 | 77 | 0 | 19.0 | 27.0 | 0.00 | 0.00 | 0.00 | 63 | 929.9 |
| 20260506172756 | 77 | 338 | 21.0 | 27.0 | 0.00 | 0.00 | 0.00 | 63 | 930.3 |
| 20260506172504 | 77 | 315 | 15.0 | 23.0 | 0.00 | 0.00 | 0.00 | 64 | 930.2 |
| 20260506171736 | 76 | 0 | 18.0 | 23.0 | 0.00 | 0.00 | 0.00 | 64 | 930.3 |
| 20260506171226 | 77 | 0 | 15.0 | 23.0 | 0.00 | 0.00 | 0.00 | 63 | 930.2 |
| 20260506170715 | 76 | 0 | 17.0 | 23.0 | 0.00 | 0.00 | 0.00 | 64 | 930.5 |
| 20260506170424 | 76 | 0 | 17.0 | 27.0 | 0.00 | 0.00 | 0.00 | 64 | 930.7 |
| 20260506165655 | 75 | 0 | 14.0 | 29.0 | 0.00 | 0.00 | 0.00 | 67 | 930.9 |
| 20260506165410 | 77 | 0 | 22.0 | 29.0 | 0.00 | 0.00 | 0.00 | 62 | 930.8 |
| 20260506164634 | 75 | 0 | 18.0 | 25.0 | 0.00 | 0.00 | 0.00 | 66 | 930.9 |
| 20260506164124 | 74 | 0 | 17.0 | 24.0 | 0.00 | 0.00 | 0.00 | 68 | 931.0 |
| 20260506163838 | 74 | 0 | 17.0 | 24.0 | 0.00 | 0.00 | 0.00 | 69 | 931.1 |
| 20260506163105 | 75 | 0 | 17.0 | 25.0 | 0.00 | 0.00 | 0.00 | 66 | 931.3 |
| 20260506162554 | 75 | 0 | 20.0 | 25.0 | 0.00 | 0.00 | 0.00 | 67 | 931.5 |
| 20260506162044 | 74 | 0 | 15.0 | 27.0 | 0.00 | 0.00 | 0.00 | 69 | 931.5 |
| 20260506161534 | 75 | 0 | 23.0 | 31.0 | 0.00 | 0.00 | 0.00 | 68 | 931.4 |
| 20260506161025 | 75 | 0 | 18.0 | 31.0 | 0.00 | 0.00 | 0.00 | 66 | 931.7 |
| 20260506160514 | 75 | 0 | 27.0 | 31.0 | 0.00 | 0.00 | 0.00 | 66 | 931.7 |
| 20260506160004 | 75 | 338 | 21.0 | 29.0 | 0.00 | 0.00 | 0.00 | 66 | 931.7 |
| 20260506155454 | 74 | 338 | 21.0 | 29.0 | 0.00 | 0.00 | 0.00 | 67 | 932.0 |
| 20260506155202 | 74 | 0 | 18.0 | 27.0 | 0.00 | 0.00 | 0.00 | 68 | 932.2 |
| 20260506154433 | 74 | 23 | 20.0 | 29.0 | 0.00 | 0.00 | 0.00 | 68 | 932.3 |
| 20260506153923 | 74 | 0 | 17.0 | 32.0 | 0.00 | 0.00 | 0.00 | 67 | 932.5 |
| 20260506153414 | 74 | 0 | 23.0 | 32.0 | 0.00 | 0.00 | 0.00 | 67 | 932.8 |
| 20260506152903 | 74 | 0 | 20.0 | 25.0 | 0.00 | 0.00 | 0.00 | 67 | 932.9 |
| 20260506152354 | 74 | 23 | 18.0 | 25.0 | 0.00 | 0.00 | 0.00 | 68 | 932.9 |
| 20260506151842 | 74 | 338 | 21.0 | 25.0 | 0.00 | 0.00 | 0.00 | 66 | 933.1 |
| 20260506151333 | 74 | 0 | 16.0 | 21.0 | 0.00 | 0.00 | 0.00 | 69 | 933.3 |
| 20260506150823 | 73 | 338 | 15.0 | 20.0 | 0.00 | 0.00 | 0.00 | 69 | 933.3 |
| 20260506150313 | 74 | 0 | 13.0 | 21.0 | 0.00 | 0.00 | 0.00 | 69 | 933.2 |
| 20260506145802 | 74 | 0 | 13.0 | 25.0 | 0.00 | 0.00 | 0.00 | 69 | 933.2 |
| 20260506145253 | 74 | 0 | 17.0 | 25.0 | 0.00 | 0.00 | 0.00 | 68 | 933.4 |
| 20260506145226 | 73 | 0 | 15.0 | 22.0 | 0.00 | 0.00 | 0.00 | 69 | 933.6 |
| 20260506144232 | 73 | 23 | 16.0 | 23.0 | 0.00 | 0.00 | 0.00 | 70 | 933.8 |
| 20260506143722 | 73 | 23 | 17.0 | 23.0 | 0.00 | 0.00 | 0.00 | 69 | 933.7 |
| 20260506143435 | 73 | 23 | 15.0 | 25.0 | 0.00 | 0.00 | 0.00 | 69 | 933.7 |
| 20260506142702 | 73 | 0 | 17.0 | 25.0 | 0.00 | 0.00 | 0.00 | 70 | 933.9 |
| 20260506142419 | 73 | 23 | 15.0 | 21.0 | 0.00 | 0.00 | 0.00 | 69 | 933.9 |
| 20260506141641 | 72 | 0 | 16.0 | 25.0 | 0.00 | 0.00 | 0.00 | 70 | 934.0 |
| 20260506141356 | 72 | 0 | 18.0 | 25.0 | 0.00 | 0.00 | 0.00 | 71 | 934.1 |
| 20260506140621 | 73 | 0 | 17.0 | 24.0 | 0.00 | 0.00 | 0.00 | 70 | 934.1 |
| 20260506140333 | 72 | 338 | 14.0 | 24.0 | 0.00 | 0.00 | 0.00 | 71 | 934.2 |
| 20260506135601 | 72 | 0 | 20.0 | 27.0 | 0.00 | 0.00 | 0.00 | 70 | 934.1 |
| 20260506135051 | 73 | 23 | 15.0 | 27.0 | 0.00 | 0.00 | 0.00 | 69 | 934.3 |
| 20260506134541 | 72 | 0 | 17.0 | 21.0 | 0.00 | 0.00 | 0.00 | 72 | 934.3 |
| 20260506134031 | 72 | 23 | 16.0 | 22.0 | 0.00 | 0.00 | 0.00 | 73 | 934.4 |
| 20260506133521 | 72 | 0 | 15.0 | 22.0 | 0.00 | 0.00 | 0.00 | 75 | 934.6 |
| 20260506133015 | 72 | 23 | 12.0 | 22.0 | 0.00 | 0.00 | 0.00 | 75 | 934.4 |
| 20260506132501 | 72 | 23 | 14.0 | 21.0 | 0.00 | 0.00 | 0.00 | 75 | 934.5 |
| 20260506131951 | 71 | 0 | 15.0 | 22.0 | 0.00 | 0.00 | 0.00 | 75 | 934.7 |
| 20260506131440 | 71 | 0 | 16.0 | 22.0 | 0.00 | 0.00 | 0.00 | 74 | 934.5 |
| 20260506130930 | 71 | 0 | 18.0 | 22.0 | 0.00 | 0.00 | 0.00 | 73 | 934.4 |
| 20260506130420 | 71 | 0 | 11.0 | 18.0 | 0.00 | 0.00 | 0.00 | 77 | 934.4 |
| 20260506125910 | 71 | 45 | 12.0 | 18.0 | 0.00 | 0.00 | 0.00 | 76 | 934.5 |
| 20260506125400 | 71 | 23 | 12.0 | 20.0 | 0.00 | 0.00 | 0.00 | 76 | 934.7 |
| 20260506124849 | 71 | 23 | 17.0 | 20.0 | 0.00 | 0.00 | 0.00 | 75 | 934.5 |
| 20260506124340 | 71 | 23 | 15.0 | 20.0 | 0.00 | 0.00 | 0.00 | 75 | 934.4 |
| 20260506123829 | 71 | 23 | 13.0 | 16.0 | 0.00 | 0.00 | 0.00 | 77 | 934.4 |
| 20260506123319 | 71 | 23 | 14.0 | 17.0 | 0.00 | 0.00 | 0.00 | 76 | 934.4 |
| 20260506122809 | 71 | 23 | 14.0 | 18.0 | 0.00 | 0.00 | 0.00 | 75 | 934.5 |
| 20260506122258 | 71 | 23 | 12.0 | 18.0 | 0.00 | 0.00 | 0.00 | 76 | 934.2 |
| 20260506121749 | 71 | 45 | 14.0 | 17.0 | 0.00 | 0.00 | 0.00 | 76 | 934.4 |
| 20260506121238 | 71 | 45 | 14.0 | 17.0 | 0.00 | 0.00 | 0.00 | 76 | 934.3 |
| 20260506120728 | 71 | 23 | 14.0 | 17.0 | 0.00 | 0.00 | 0.00 | 75 | 934.5 |
| 20260506120219 | 70 | 45 | 11.0 | 16.0 | 0.00 | 0.00 | 0.00 | 76 | 934.4 |
| 20260506115709 | 70 | 45 | 11.0 | 16.0 | 0.00 | 0.00 | 0.00 | 77 | 934.2 |
| 20260506115158 | 70 | 23 | 7.0 | 11.0 | 0.00 | 0.00 | 0.00 | 78 | 934.2 |